{"data":{"norad_id":67542,"intl_designator":"2026-014L","name":"STARLINK-35934","alt_names":[],"object_type":"PAYLOAD","status":"ACTIVE","operator":null,"country":"US","launch_date":"2026-01-22","launch_site_code":"AFWTR","launch_vehicle":null,"mission":null,"orbit_class":"UNKNOWN","rcs_meters":null,"size_class":null,"mass_kg":null,"dimensions":null,"purposes":["comms"],"wikipedia_slug":null,"has_3d_model":false,"image_url":null,"decayed_at":null,"tle_current":{"epoch":"2026-05-25T03:11:35.498400Z","epoch_age_seconds":64371,"freshness":"FRESH","line1":"1 67542U 26014L   26145.13304975  .00017014  00000+0  52816-3 0  9994","line2":"2 67542  97.2866  32.2565 0001402  92.4430 267.6973 15.33444528 20490","mean_motion":15.33444528,"eccentricity":0.0001402,"inclination_deg":97.2866,"raan_deg":32.2565,"arg_perigee_deg":92.443,"mean_anomaly_deg":267.6973,"bstar":0.00052816,"rev_number":2049,"period_min":93.906233561518,"perigee_km":464.58509466106,"apogee_km":466.50406297576,"semimajor_km":6843.6815788184,"source":"CELESTRAK","updated_at":"2026-05-25T13:38:21.608690Z"}}}